COSMOS 1862

Satellite information

Favourite Embed

Satellite Type and Status

PAYLOADIN ORBIT

Key statistics

Satellite COSMOS 1862 at a glance.

Uptime

13948

Days in orbit

Revolutions

≈ 15.3

Per day

Orbit

LEO

Low Earth Orbit

Inclination

82.5

Latest

Satellite identification and parameters

Extended collection of information and parameters for COSMOS 1862.

Object identification

Identified? True

Debris? False

Object name: COSMOS 1862

International designator: 1987-055A

Object number (NORAD): 18152

Object ID (CCSDS): 18152

Country: COMMONWEALTH OF INDEPENDENT STATES (CIS)

Current information (Y/N): Y

RCS size: LARGE

Orbital parameters

Period: 94.301 minutes

Inclination: 82.4845 deg

SMA: 6862.829 km

Apoapsis: 490.013 km

Periapsis: 479.375 km

RAAN: 232.8755 deg

Eccentricy: 0.00077501

Argument of periapsis: 311.3751 deg

Mean anomaly: 48.6821 deg

Mean motion: 15.27031497 rev/day

Mean motion (dot): 0.00011152 rev/day2

B* drag term: 0.00041887166 1/REarth

Two-line elements (TLE)

Creation date: Sept. 7, 2025, 3:09 a.m.

Reference frame: TEME

Reference center: EARTH

Epoch: Sept. 6, 2025, 10:56 p.m. UTC

TLE line 0: 0 COSMOS 1862

TLE line 1: 1 18152U 87055A 25249.95574935 .00011152 00000-0 41887-3 0 9992

TLE line 2: 2 18152 82.4845 232.8755 0007750 311.3751 48.6821 15.27031497 61760

Live tracking on map

Real-time ground track for satellite COSMOS 1862.

In-orbit conjunctions

A list of the most updated potential collisions computed for object COSMOS 1862.

Target Orbit TCA Probability of collision Miss distance Type
OBJECT Z SSO 2025-05-07 18:24:16 0.003552275 163.0 (m) UNKNOWN
FENGYUN 1C DEB SSO 2025-04-12 19:23:07 0.000250417 99.0 (m) DEBRIS
PEGASUS DEB LEO 2024-06-30 00:35:56 0.001064007 88.0 (m) DEBRIS

Associated space launch

Tselina-D satellites provided detailed observation of radio sources detected by the smaller Tselina-O satellites as part of the Tselina ELINT system.

COSMOS 1862 was lifted into orbit during the mission ‘Tsiklon-3 | Tselina-D 61’, on board a Tsiklon-3 space rocket.

The launch took place on July 1, 1987, 7:35 p.m. from 32/2.

For more information about the launch, click the button.

Launch to space Tsiklon-3 | Tselina-D 61
Tsiklon-3 | Tselina-D 61

Agency: N/A

Status: Launch Successful

Launch date: July 1, 1987, 7:35 p.m. UTC

Rocket: Tsiklon-3

Launch pad: 32/2

Location: Plesetsk Cosmodrome, Russian Federation

...

Latest news about this satellite

There are no fresh news available about this satellite. Check back as we update our databases every day.


Newsletter sign-up

Weekly statistics, charts and insights to help you stay on top of the space industry.